TimeMDT,TemperatureF,Dew PointF,Humidity,Sea Level PressureIn,VisibilityMPH,Wind Direction,Wind SpeedMPH,Gust SpeedMPH,PrecipitationIn,Events,Conditions,WindDirDegrees,DateUTC
12:53 AM,55.9,28.9,36,29.91,10.0,East,4.6,-,N/A,,Clear,80,2013-06-13 06:53:00
1:53 AM,54.0,30.0,40,29.91,10.0,East,5.8,-,N/A,,Clear,80,2013-06-13 07:53:00
2:53 AM,52.0,30.9,45,29.92,10.0,Calm,Calm,-,N/A,,Clear,0,2013-06-13 08:53:00
3:53 AM,48.9,32.0,52,29.93,10.0,ENE,4.6,-,N/A,,Clear,60,2013-06-13 09:53:00
4:53 AM,48.9,32.0,52,29.94,10.0,ENE,3.5,-,N/A,,Clear,60,2013-06-13 10:53:00
5:53 AM,53.1,32.0,45,29.92,10.0,ENE,6.9,-,N/A,,Clear,70,2013-06-13 11:53:00
6:53 AM,57.0,32.0,39,29.92,10.0,Calm,Calm,-,N/A,,Clear,0,2013-06-13 12:53:00
7:53 AM,64.0,37.0,37,29.92,10.0,SE,3.5,-,N/A,,Clear,130,2013-06-13 13:53:00
8:53 AM,73.9,34.0,23,29.94,10.0,Calm,Calm,-,N/A,,Clear,0,2013-06-13 14:53:00
9:53 AM,84.0,30.0,14,29.93,10.0,SSW,11.5,-,N/A,,Clear,200,2013-06-13 15:53:00
10:53 AM,88.0,30.0,12,29.93,10.0,South,13.8,-,N/A,,Clear,190,2013-06-13 16:53:00
11:53 AM,90.0,26.1,10,29.92,10.0,SSW,16.1,20.7,N/A,,Clear,200,2013-06-13 17:53:00
12:53 PM,91.9,21.9,8,29.89,10.0,SSW,16.1,23.0,N/A,,Clear,210,2013-06-13 18:53:00
1:53 PM,93.9,21.9,7,29.86,10.0,SW,20.7,28.8,N/A,,Clear,220,2013-06-13 19:53:00
2:53 PM,91.9,24.1,9,29.85,10.0,West,15.0,25.3,N/A,,Clear,270,2013-06-13 20:53:00
3:53 PM,90.0,25.0,10,29.85,10.0,WSW,17.3,23.0,N/A,,Clear,240,2013-06-13 21:53:00
4:53 PM,89.1,27.0,11,29.84,10.0,WSW,16.1,20.7,N/A,,Clear,240,2013-06-13 22:53:00
5:53 PM,90.0,26.1,10,29.79,10.0,WSW,15.0,21.9,N/A,,Clear,250,2013-06-13 23:53:00
6:53 PM,87.1,27.0,11,29.77,10.0,WSW,12.7,-,N/A,,Clear,240,2013-06-14 00:53:00
7:25 PM,86.0,24.8,11,30.03,9.0,South,19.6,38.0,N/A,Thunderstorm,Partly Cloudy,190,2013-06-14 01:25:00
7:38 PM,84.2,28.4,13,30.03,10.0,West,25.3,33.4,N/A,,Clear,280,2013-06-14 01:38:00
7:53 PM,84.9,27.0,12,29.77,10.0,WSW,13.8,23.0,N/A,,Clear,240,2013-06-14 01:53:00
8:24 PM,82.4,28.4,14,30.05,9.0,West,21.9,33.4,N/A,Thunderstorm,Partly Cloudy,260,2013-06-14 02:24:00
8:39 PM,80.6,30.2,16,30.07,10.0,West,12.7,25.3,N/A,,Scattered Clouds,280,2013-06-14 02:39:00
8:53 PM,80.1,30.0,16,29.79,10.0,Variable,4.6,-,N/A,,Partly Cloudy,0,2013-06-14 02:53:00
9:53 PM,79.0,30.0,17,29.75,10.0,SSW,8.1,-,N/A,,Clear,200,2013-06-14 03:53:00
10:53 PM,73.9,32.0,21,29.78,10.0,SSW,9.2,-,N/A,,Clear,200,2013-06-14 04:53:00
11:53 PM,71.1,32.0,24,29.78,10.0,South,6.9,-,N/A,,Clear,180,2013-06-14 05:53:00